Time,TemperatureF,DewpointF,PressureIn,WindDirection,WindDirectionDegrees,WindSpeedMPH,WindSpeedGustMPH,Humidity,HourlyPrecipIn,Conditions,Clouds,dailyrainin,SoftwareType,DateUTC
2013-02-01 00:00:00,11.1,5.3,30.22,WNW,296,19.0,33.0,77,0.00,,OVC029,0.00,VWS V13.01,2013-02-01 05:00:00,
2013-02-01 00:01:00,11.1,5.3,30.22,WNW,298,21.0,33.0,77,0.00,,OVC029,0.00,VWS V13.01,2013-02-01 05:01:00,
2013-02-01 00:03:00,11.1,5.3,30.22,WNW,290,16.0,33.0,77,0.00,,OVC029,0.00,VWS V13.01,2013-02-01 05:03:00,
2013-02-01 00:08:00,10.7,5.5,30.22,WNW,284,23.0,29.0,79,0.00,,OVC029,0.00,VWS V13.01,2013-02-01 05:08:00,
2013-02-01 00:13:00,10.5,5.8,30.23,WNW,289,25.0,30.0,81,0.00,,OVC029,0.00,VWS V13.01,2013-02-01 05:13:00,
2013-02-01 00:18:00,10.3,5.6,30.23,West,274,25.0,30.0,81,0.00,,OVC029,0.00,VWS V13.01,2013-02-01 05:18:00,
2013-02-01 00:23:00,9.9,4.7,30.23,West,279,27.0,30.0,79,0.00,,OVC029,0.00,VWS V13.01,2013-02-01 05:23:00,
2013-02-01 00:28:00,9.9,5.0,30.24,WNW,294,17.0,31.0,80,0.00,,OVC029,0.00,VWS V13.01,2013-02-01 05:28:00,
2013-02-01 00:33:00,10.0,4.5,30.24,WNW,293,20.0,31.0,78,0.00,,OVC029,0.00,VWS V13.01,2013-02-01 05:33:00,
2013-02-01 00:38:00,9.8,3.5,30.24,WNW,296,20.0,31.0,75,0.00,,OVC029,0.00,VWS V13.01,2013-02-01 05:38:00,
2013-02-01 00:43:00,9.3,3.0,30.25,WNW,289,26.0,32.0,75,0.00,,OVC029,0.00,VWS V13.01,2013-02-01 05:43:00,
2013-02-01 00:48:00,9.5,2.3,30.25,WNW,292,22.0,32.0,72,0.00,,OVC029,0.00,VWS V13.01,2013-02-01 05:48:00,
2013-02-01 00:53:00,9.6,2.1,30.25,WNW,290,23.0,32.0,71,0.00,,OVC029,0.00,VWS V13.01,2013-02-01 05:53:00,
2013-02-01 00:58:00,9.5,2.0,30.25,WNW,300,27.0,32.0,71,0.00,,OVC029,0.00,VWS V13.01,2013-02-01 05:58:00,
2013-02-01 01:03:00,9.3,1.5,30.25,WNW,300,20.0,32.0,70,0.00,,OVC029,0.00,VWS V13.01,2013-02-01 06:03:00,
2013-02-01 01:08:00,9.2,1.7,30.25,WNW,284,19.0,29.0,71,0.00,,OVC029,0.00,VWS V13.01,2013-02-01 06:08:00,
2013-02-01 01:13:00,9.2,1.1,30.26,WNW,288,23.0,30.0,69,0.00,,OVC029,0.00,VWS V13.01,2013-02-01 06:13:00,
2013-02-01 01:18:00,9.1,0.7,30.26,WNW,290,21.0,30.0,68,0.00,,OVC029,0.00,VWS V13.01,2013-02-01 06:18:00,
2013-02-01 01:23:00,9.0,0.6,30.26,WNW,291,20.0,32.0,68,0.00,,OVC029,0.00,VWS V13.01,2013-02-01 06:23:00,
2013-02-01 01:28:00,8.9,0.8,30.26,WNW,290,24.0,32.0,69,0.00,,OVC029,0.00,VWS V13.01,2013-02-01 06:28:00,
2013-02-01 01:33:00,8.9,0.8,30.26,West,274,23.0,32.0,69,0.00,,OVC029,0.00,VWS V13.01,2013-02-01 06:33:00,
2013-02-01 01:38:00,9.0,1.2,30.27,West,279,22.0,26.0,70,0.00,,OVC029,0.00,VWS V13.01,2013-02-01 06:38:00,
2013-02-01 01:43:00,9.0,1.5,30.27,WNW,288,20.0,26.0,71,0.00,,OVC029,0.00,VWS V13.01,2013-02-01 06:43:00,
2013-02-01 01:48:00,9.0,1.8,30.27,West,269,16.0,26.0,72,0.00,,OVC029,0.00,VWS V13.01,2013-02-01 06:48:00,
2013-02-01 01:53:00,8.9,3.2,30.28,West,279,21.0,26.0,77,0.00,,OVC029,0.00,VWS V13.01,2013-02-01 06:53:00,
2013-02-01 01:58:00,8.7,3.3,30.28,WNW,283,19.0,28.0,78,0.00,,OVC029,0.00,VWS V13.01,2013-02-01 06:58:00,
2013-02-01 02:03:00,8.8,3.4,30.28,WNW,282,22.0,28.0,78,0.00,,OVC029,0.00,VWS V13.01,2013-02-01 07:03:00,
2013-02-01 02:08:00,8.9,3.2,30.29,WNW,289,21.0,30.0,77,0.00,,OVC029,0.00,VWS V13.01,2013-02-01 07:08:00,
2013-02-01 02:13:00,8.5,2.2,30.29,WNW,282,20.0,30.0,75,0.00,,OVC029,0.00,VWS V13.01,2013-02-01 07:13:00,
2013-02-01 02:18:00,8.3,1.5,30.30,WNW,288,21.0,30.0,73,0.00,,OVC029,0.00,VWS V13.01,2013-02-01 07:18:00,
2013-02-01 02:23:00,8.4,1.5,30.30,WNW,288,29.0,30.0,73,0.00,,OVC029,0.00,VWS V13.01,2013-02-01 07:23:00,
2013-02-01 02:28:00,8.4,1.5,30.31,NW,304,25.0,30.0,73,0.00,,OVC029,0.00,VWS V13.01,2013-02-01 07:28:00,
2013-02-01 02:33:00,8.3,0.9,30.31,West,274,23.0,30.0,71,0.00,,OVC029,0.00,VWS V13.01,2013-02-01 07:33:00,
2013-02-01 02:38:00,8.2,1.0,30.31,West,280,20.0,29.0,72,0.00,,OVC029,0.00,VWS V13.01,2013-02-01 07:38:00,
2013-02-01 02:43:00,8.0,0.9,30.31,WNW,284,21.0,29.0,72,0.00,,OVC029,0.00,VWS V13.01,2013-02-01 07:43:00,
2013-02-01 02:48:00,7.7,0.3,30.32,West,274,16.0,29.0,71,0.00,,OVC029,0.00,VWS V13.01,2013-02-01 07:48:00,
2013-02-01 02:53:00,7.6,-0.1,30.32,West,279,20.0,29.0,70,0.00,,OVC029,0.00,VWS V13.01,2013-02-01 07:53:00,
2013-02-01 02:58:00,7.6,0.5,30.32,West,277,16.0,29.0,72,0.00,,OVC029,0.00,VWS V13.01,2013-02-01 07:58:00,
2013-02-01 03:03:00,7.6,0.5,30.32,West,281,18.0,29.0,72,0.00,,OVC029,0.00,VWS V13.01,2013-02-01 08:03:00,
2013-02-01 03:08:00,7.6,0.5,30.33,WNW,284,20.0,26.0,72,0.00,,OVC029,0.00,VWS V13.01,2013-02-01 08:08:00,
2013-02-01 03:13:00,7.5,1.0,30.33,West,279,21.0,26.0,74,0.00,,OVC029,0.00,VWS V13.01,2013-02-01 08:13:00,
2013-02-01 03:18:00,7.5,1.0,30.33,West,273,15.0,26.0,74,0.00,,OVC029,0.00,VWS V13.01,2013-02-01 08:18:00,
2013-02-01 03:23:00,7.7,1.4,30.33,WNW,285,20.0,26.0,75,0.00,,OVC029,0.00,VWS V13.01,2013-02-01 08:23:00,
2013-02-01 03:28:00,7.4,0.9,30.34,West,271,21.0,28.0,74,0.00,,OVC029,0.00,VWS V13.01,2013-02-01 08:28:00,
2013-02-01 03:33:00,7.2,-0.2,30.34,West,271,22.0,28.0,71,0.00,,OVC029,0.00,VWS V13.01,2013-02-01 08:33:00,
2013-02-01 03:38:00,7.2,0.4,30.34,West,274,22.0,27.0,73,0.00,,OVC029,0.00,VWS V13.01,2013-02-01 08:38:00,
2013-02-01 03:43:00,7.1,-0.3,30.35,West,280,24.0,28.0,71,0.00,,OVC029,0.00,VWS V13.01,2013-02-01 08:43:00,
2013-02-01 03:48:00,7.3,0.5,30.35,West,271,19.0,28.0,73,0.00,,OVC029,0.00,VWS V13.01,2013-02-01 08:48:00,
2013-02-01 03:53:00,7.2,0.4,30.35,WNW,287,20.0,28.0,73,0.00,,OVC029,0.00,VWS V13.01,2013-02-01 08:53:00,
2013-02-01 03:58:00,7.0,0.2,30.35,WNW,283,18.0,28.0,73,0.00,,OVC029,0.00,VWS V13.01,2013-02-01 08:58:00,
2013-02-01 04:03:00,7.0,-0.1,30.35,West,280,19.0,28.0,72,0.00,,OVC029,0.00,VWS V13.01,2013-02-01 09:03:00,
2013-02-01 04:08:00,7.0,0.2,30.36,West,279,17.0,21.0,73,0.00,,OVC029,0.00,VWS V13.01,2013-02-01 09:08:00,
2013-02-01 04:13:00,7.0,0.2,30.36,West,275,18.0,25.0,73,0.00,,OVC029,0.00,VWS V13.01,2013-02-01 09:13:00,
2013-02-01 04:18:00,7.0,0.5,30.36,West,270,16.0,25.0,74,0.00,,OVC029,0.00,VWS V13.01,2013-02-01 09:18:00,
2013-02-01 04:23:00,6.9,0.1,30.36,WNW,289,19.0,28.0,73,0.00,,OVC029,0.00,VWS V13.01,2013-02-01 09:23:00,
2013-02-01 04:28:00,6.8,-0.3,30.37,West,267,26.0,29.0,72,0.00,,OVC029,0.00,VWS V13.01,2013-02-01 09:28:00,
2013-02-01 04:33:00,6.8,-0.6,30.37,WNW,283,19.0,29.0,71,0.00,,OVC029,0.00,VWS V13.01,2013-02-01 09:33:00,
2013-02-01 04:38:00,6.8,0.0,30.37,West,263,23.0,25.0,73,0.00,,OVC029,0.00,VWS V13.01,2013-02-01 09:38:00,
2013-02-01 04:43:00,6.8,0.6,30.37,West,271,24.0,28.0,75,0.00,,OVC029,0.00,VWS V13.01,2013-02-01 09:43:00,
2013-02-01 04:48:00,6.9,0.7,30.37,West,267,16.0,28.0,75,0.00,,OVC029,0.00,VWS V13.01,2013-02-01 09:48:00,
2013-02-01 04:53:00,7.1,1.1,30.37,West,261,20.0,28.0,76,0.00,,OVC029,0.00,VWS V13.01,2013-02-01 09:53:00,
2013-02-01 04:58:00,7.2,1.0,30.37,West,271,18.0,28.0,75,0.00,,OVC029,0.00,VWS V13.01,2013-02-01 09:58:00,
2013-02-01 05:03:00,7.0,0.5,30.38,WNW,291,19.0,28.0,74,0.00,,OVC029,0.00,VWS V13.01,2013-02-01 10:03:00,
2013-02-01 05:08:00,7.1,0.9,30.38,West,259,17.0,21.0,75,0.00,,OVC029,0.00,VWS V13.01,2013-02-01 10:08:00,
2013-02-01 05:13:00,7.0,0.2,30.39,West,275,22.0,27.0,73,0.00,,OVC029,0.00,VWS V13.01,2013-02-01 10:13:00,
2013-02-01 05:18:00,6.9,0.1,30.39,West,266,23.0,27.0,73,0.00,,OVC029,0.00,VWS V13.01,2013-02-01 10:18:00,
2013-02-01 05:23:00,6.7,-0.4,30.39,West,270,18.0,27.0,72,0.00,,OVC029,0.00,VWS V13.01,2013-02-01 10:23:00,
2013-02-01 05:28:00,6.7,0.2,30.39,West,263,21.0,27.0,74,0.00,,OVC029,0.00,VWS V13.01,2013-02-01 10:28:00,
2013-02-01 05:33:00,6.6,-0.2,30.39,West,269,18.0,27.0,73,0.00,,OVC029,0.00,VWS V13.01,2013-02-01 10:33:00,
2013-02-01 05:38:00,6.5,0.3,30.39,West,262,20.0,21.0,75,0.00,,OVC029,0.00,VWS V13.01,2013-02-01 10:38:00,
2013-02-01 05:43:00,6.7,0.8,30.40,West,260,21.0,24.0,76,0.00,,OVC029,0.00,VWS V13.01,2013-02-01 10:43:00,
2013-02-01 05:48:00,6.7,1.0,30.40,West,264,21.0,24.0,77,0.00,,OVC029,0.00,VWS V13.01,2013-02-01 10:48:00,
2013-02-01 05:53:00,6.8,1.4,30.40,West,269,20.0,24.0,78,0.00,,OVC029,0.00,VWS V13.01,2013-02-01 10:53:00,
2013-02-01 05:58:00,6.6,0.9,30.40,West,273,14.0,24.0,77,0.00,,OVC029,0.00,VWS V13.01,2013-02-01 10:58:00,
2013-02-01 06:03:00,6.4,0.2,30.41,West,271,17.0,24.0,75,0.00,,OVC029,0.00,VWS V13.01,2013-02-01 11:03:00,
2013-02-01 06:08:00,6.4,-0.1,30.41,West,273,17.0,24.0,74,0.00,,OVC029,0.00,VWS V13.01,2013-02-01 11:08:00,
2013-02-01 06:13:00,6.3,-0.5,30.41,West,277,20.0,25.0,73,0.00,,OVC029,0.00,VWS V13.01,2013-02-01 11:13:00,
2013-02-01 06:18:00,6.3,-0.5,30.42,West,276,23.0,25.0,73,0.00,,OVC029,0.00,VWS V13.01,2013-02-01 11:18:00,
2013-02-01 06:23:00,6.3,-0.2,30.42,West,275,18.0,25.0,74,0.00,,OVC029,0.00,VWS V13.01,2013-02-01 11:23:00,
2013-02-01 06:28:00,6.2,-0.6,30.42,WNW,287,13.0,25.0,73,0.00,,OVC029,0.00,VWS V13.01,2013-02-01 11:28:00,
2013-02-01 06:33:00,6.1,-0.7,30.42,West,274,13.0,25.0,73,0.00,,OVC029,0.00,VWS V13.01,2013-02-01 11:33:00,
2013-02-01 06:38:00,6.1,-0.7,30.43,West,271,21.0,23.0,73,0.00,,OVC029,0.00,VWS V13.01,2013-02-01 11:38:00,
2013-02-01 06:43:00,6.0,-0.8,30.43,West,276,15.0,23.0,73,0.00,,OVC029,0.00,VWS V13.01,2013-02-01 11:43:00,
2013-02-01 06:48:00,6.1,-0.4,30.43,West,271,19.0,23.0,74,0.00,,OVC029,0.00,VWS V13.01,2013-02-01 11:48:00,
2013-02-01 06:53:00,6.0,-0.8,30.43,West,275,18.0,23.0,73,0.00,,OVC029,0.00,VWS V13.01,2013-02-01 11:53:00,
2013-02-01 06:58:00,6.1,-0.1,30.44,West,281,14.0,23.0,75,0.00,,OVC029,0.00,VWS V13.01,2013-02-01 11:58:00,
2013-02-01 07:03:00,6.1,-0.1,30.44,West,275,15.0,23.0,75,0.00,,OVC029,0.00,VWS V13.01,2013-02-01 12:03:00,
2013-02-01 07:08:00,6.1,-0.1,30.44,West,275,20.0,24.0,75,0.00,,OVC029,0.00,VWS V13.01,2013-02-01 12:08:00,
2013-02-01 07:13:00,6.0,-0.8,30.44,West,267,23.0,26.0,73,0.00,,OVC029,0.00,VWS V13.01,2013-02-01 12:13:00,
2013-02-01 07:18:00,5.9,-0.6,30.45,West,275,16.0,26.0,74,0.00,,OVC029,0.00,VWS V13.01,2013-02-01 12:18:00,
2013-02-01 07:23:00,6.0,-0.8,30.45,West,268,18.0,26.0,73,0.00,,OVC029,0.00,VWS V13.01,2013-02-01 12:23:00,
2013-02-01 07:28:00,5.9,-0.9,30.45,West,261,19.0,26.0,73,0.00,,OVC029,0.00,VWS V13.01,2013-02-01 12:28:00,
2013-02-01 07:33:00,6.0,-0.5,30.45,West,266,14.0,26.0,74,0.00,,OVC029,0.00,VWS V13.01,2013-02-01 12:33:00,
2013-02-01 07:38:00,5.8,-1.3,30.45,WNW,290,15.0,22.0,72,0.00,,OVC029,0.00,VWS V13.01,2013-02-01 12:38:00,
2013-02-01 07:43:00,5.8,-1.0,30.46,West,275,16.0,22.0,73,0.00,,OVC029,0.00,VWS V13.01,2013-02-01 12:43:00,
2013-02-01 07:48:00,5.8,-1.0,30.45,West,272,16.0,23.0,73,0.00,,OVC029,0.00,VWS V13.01,2013-02-01 12:48:00,
2013-02-01 07:53:00,5.8,-0.7,30.46,West,270,15.0,23.0,74,0.00,,OVC029,0.00,VWS V13.01,2013-02-01 12:53:00,
2013-02-01 07:58:00,5.9,-0.6,30.46,West,261,19.0,23.0,74,0.00,,OVC029,0.00,VWS V13.01,2013-02-01 12:58:00,
2013-02-01 08:03:00,5.8,-0.7,30.46,West,264,16.0,23.0,74,0.00,,OVC029,0.00,VWS V13.01,2013-02-01 13:03:00,
2013-02-01 08:08:00,6.0,-0.2,30.47,WSW,253,17.0,18.0,75,0.00,,OVC029,0.00,VWS V13.01,2013-02-01 13:08:00,
2013-02-01 08:13:00,6.1,-0.1,30.47,West,259,13.0,18.0,75,0.00,,OVC029,0.00,VWS V13.01,2013-02-01 13:13:00,
2013-02-01 08:18:00,6.0,0.3,30.47,WSW,257,11.0,18.0,77,0.00,,OVC029,0.00,VWS V13.01,2013-02-01 13:18:00,
2013-02-01 08:23:00,6.0,0.3,30.47,WSW,254,18.0,20.0,77,0.00,,OVC029,0.00,VWS V13.01,2013-02-01 13:23:00,
2013-02-01 08:28:00,6.1,0.2,30.47,WSW,254,15.0,20.0,76,0.00,,OVC029,0.00,VWS V13.01,2013-02-01 13:28:00,
2013-02-01 08:33:00,6.1,0.4,30.47,West,259,16.0,20.0,77,0.00,,OVC029,0.00,VWS V13.01,2013-02-01 13:33:00,
2013-02-01 08:38:00,5.9,-0.3,30.48,WSW,252,17.0,20.0,75,0.00,,OVC029,0.00,VWS V13.01,2013-02-01 13:38:00,
2013-02-01 08:43:00,6.0,-0.2,30.48,WNW,288,13.0,20.0,75,0.00,,OVC029,0.00,VWS V13.01,2013-02-01 13:43:00,
2013-02-01 08:48:00,5.9,-0.9,30.48,West,268,18.0,20.0,73,0.00,,OVC029,0.00,VWS V13.01,2013-02-01 13:48:00,
2013-02-01 08:53:00,6.0,-0.5,30.48,West,270,16.0,20.0,74,0.00,,OVC029,0.00,VWS V13.01,2013-02-01 13:53:00,
2013-02-01 08:58:00,6.2,0.0,30.49,West,270,12.0,20.0,75,0.00,,OVC029,0.00,VWS V13.01,2013-02-01 13:58:00,
2013-02-01 09:03:00,6.3,-0.2,30.48,West,265,17.0,20.0,74,0.00,,OVC029,0.00,VWS V13.01,2013-02-01 14:03:00,
2013-02-01 09:08:00,6.3,-0.2,30.49,West,273,17.0,19.0,74,0.00,,OVC029,0.00,VWS V13.01,2013-02-01 14:08:00,
2013-02-01 09:13:00,6.3,-0.2,30.49,West,273,16.0,19.0,74,0.00,,OVC029,0.00,VWS V13.01,2013-02-01 14:13:00,
2013-02-01 09:18:00,6.4,-0.4,30.50,West,267,18.0,20.0,73,0.00,,OVC029,0.00,VWS V13.01,2013-02-01 14:18:00,
2013-02-01 09:23:00,6.5,0.0,30.50,West,281,13.0,21.0,74,0.00,,OVC029,0.00,VWS V13.01,2013-02-01 14:23:00,
2013-02-01 09:28:00,6.7,-0.1,30.50,West,270,13.0,21.0,73,0.00,,OVC029,0.00,VWS V13.01,2013-02-01 14:28:00,
2013-02-01 09:33:00,6.6,-0.2,30.49,WNW,283,11.0,21.0,73,0.00,,OVC029,0.00,VWS V13.01,2013-02-01 14:33:00,
2013-02-01 09:38:00,7.1,0.9,30.50,West,266,13.0,18.0,75,0.00,,OVC029,0.00,VWS V13.01,2013-02-01 14:38:00,
2013-02-01 09:43:00,7.3,0.8,30.50,WNW,283,12.0,21.0,74,0.00,,OVC029,0.00,VWS V13.01,2013-02-01 14:43:00,
2013-02-01 09:48:00,7.2,0.7,30.50,West,281,13.0,21.0,74,0.00,,OVC029,0.00,VWS V13.01,2013-02-01 14:48:00,
2013-02-01 09:53:00,7.3,0.5,30.50,West,260,17.0,21.0,73,0.00,,OVC029,0.00,VWS V13.01,2013-02-01 14:53:00,
2013-02-01 09:58:00,7.4,0.3,30.51,West,260,16.0,21.0,72,0.00,,OVC029,0.00,VWS V13.01,2013-02-01 14:58:00,
2013-02-01 10:03:00,7.6,0.8,30.50,West,267,19.0,22.0,73,0.00,,OVC029,0.00,VWS V13.01,2013-02-01 15:03:00,
2013-02-01 10:08:00,7.3,-0.1,30.51,West,270,15.0,20.0,71,0.00,,OVC029,0.00,VWS V13.01,2013-02-01 15:08:00,
2013-02-01 10:13:00,7.9,0.8,30.51,WSW,250,18.0,21.0,72,0.00,,OVC029,0.00,VWS V13.01,2013-02-01 15:13:00,
2013-02-01 10:18:00,8.0,0.9,30.52,West,263,16.0,21.0,72,0.00,,OVC029,0.00,VWS V13.01,2013-02-01 15:18:00,
2013-02-01 10:23:00,8.0,1.2,30.52,WSW,254,18.0,21.0,73,0.00,,OVC029,0.00,VWS V13.01,2013-02-01 15:23:00,
2013-02-01 10:28:00,8.1,1.0,30.52,WSW,254,18.0,21.0,72,0.00,,OVC029,0.00,VWS V13.01,2013-02-01 15:28:00,
2013-02-01 10:33:00,8.3,1.5,30.52,West,259,17.0,21.0,73,0.00,,OVC029,0.00,VWS V13.01,2013-02-01 15:33:00,
2013-02-01 10:38:00,8.3,1.1,30.53,West,263,18.0,20.0,72,0.00,,OVC029,0.00,VWS V13.01,2013-02-01 15:38:00,
2013-02-01 10:43:00,8.2,1.0,30.53,West,269,16.0,20.0,72,0.00,,OVC029,0.00,VWS V13.01,2013-02-01 15:43:00,
2013-02-01 10:48:00,8.6,1.7,30.53,West,264,18.0,22.0,73,0.00,,OVC029,0.00,VWS V13.01,2013-02-01 15:48:00,
2013-02-01 10:53:00,8.3,1.1,30.53,West,261,14.0,22.0,72,0.00,,OVC029,0.00,VWS V13.01,2013-02-01 15:53:00,
2013-02-01 10:58:00,9.0,2.4,30.53,West,270,17.0,22.0,74,0.00,,OVC029,0.00,VWS V13.01,2013-02-01 15:58:00,
2013-02-01 11:03:00,8.6,1.4,30.53,WSW,254,14.0,22.0,72,0.00,,OVC029,0.00,VWS V13.01,2013-02-01 16:03:00,
2013-02-01 11:08:00,8.6,1.1,30.53,WSW,247,19.0,21.0,71,0.00,,OVC029,0.00,VWS V13.01,2013-02-01 16:08:00,
2013-02-01 11:13:00,9.2,2.3,30.54,WSW,250,19.0,21.0,73,0.00,,OVC029,0.00,VWS V13.01,2013-02-01 16:13:00,
2013-02-01 11:18:00,9.1,1.9,30.54,West,272,17.0,23.0,72,0.00,,OVC029,0.00,VWS V13.01,2013-02-01 16:18:00,
2013-02-01 11:23:00,9.1,1.9,30.54,WSW,256,17.0,23.0,72,0.00,,OVC029,0.00,VWS V13.01,2013-02-01 16:23:00,
2013-02-01 11:28:00,9.2,2.3,30.54,WSW,242,18.0,23.0,73,0.00,,OVC029,0.00,VWS V13.01,2013-02-01 16:28:00,
2013-02-01 11:33:00,9.4,2.2,30.54,WSW,246,17.0,23.0,72,0.00,,OVC029,0.00,VWS V13.01,2013-02-01 16:33:00,
2013-02-01 11:38:00,9.9,2.7,30.54,WSW,246,18.0,21.0,72,0.00,,OVC029,0.00,VWS V13.01,2013-02-01 16:38:00,
2013-02-01 11:43:00,9.7,2.8,30.54,WSW,257,18.0,22.0,73,0.00,,OVC029,0.00,VWS V13.01,2013-02-01 16:43:00,
2013-02-01 11:48:00,10.3,3.1,30.55,WSW,254,19.0,22.0,72,0.00,,OVC029,0.00,VWS V13.01,2013-02-01 16:48:00,
2013-02-01 11:53:00,10.2,2.7,30.55,WSW,247,17.0,22.0,71,0.00,,OVC029,0.00,VWS V13.01,2013-02-01 16:53:00,
2013-02-01 11:58:00,10.3,3.1,30.55,WSW,258,19.0,22.0,72,0.00,,OVC029,0.00,VWS V13.01,2013-02-01 16:58:00,
2013-02-01 12:03:00,10.5,2.7,30.54,WSW,252,17.0,22.0,70,0.00,,OVC029,0.00,VWS V13.01,2013-02-01 17:03:00,
2013-02-01 12:08:00,10.5,3.3,30.54,WSW,254,19.0,21.0,72,0.00,,OVC029,0.00,VWS V13.01,2013-02-01 17:08:00,
2013-02-01 12:13:00,10.3,2.5,30.54,WSW,251,19.0,21.0,70,0.00,,OVC029,0.00,VWS V13.01,2013-02-01 17:13:00,
2013-02-01 12:18:00,10.7,3.5,30.54,West,266,19.0,21.0,72,0.00,,OVC029,0.00,VWS V13.01,2013-02-01 17:18:00,
2013-02-01 12:23:00,10.9,3.0,30.54,West,266,16.0,21.0,70,0.00,,OVC029,0.00,VWS V13.01,2013-02-01 17:23:00,
2013-02-01 12:28:00,11.0,3.2,30.54,West,267,18.0,21.0,70,0.00,,OVC029,0.00,VWS V13.01,2013-02-01 17:28:00,
2013-02-01 12:33:00,11.4,3.5,30.54,WSW,250,14.0,21.0,70,0.00,,OVC029,0.00,VWS V13.01,2013-02-01 17:33:00,
2013-02-01 12:38:00,12.0,4.4,30.53,West,259,17.0,20.0,71,0.00,,OVC029,0.00,VWS V13.01,2013-02-01 17:38:00,
2013-02-01 12:43:00,11.3,3.4,30.53,West,263,15.0,20.0,70,0.00,,OVC029,0.00,VWS V13.01,2013-02-01 17:43:00,
2013-02-01 12:48:00,10.6,2.5,30.53,West,260,16.0,22.0,69,0.00,,OVC029,0.00,VWS V13.01,2013-02-01 17:48:00,
2013-02-01 12:53:00,11.4,3.8,30.53,West,259,18.0,22.0,71,0.00,,OVC029,0.00,VWS V13.01,2013-02-01 17:53:00,
2013-02-01 12:58:00,11.9,4.3,30.53,WSW,245,17.0,22.0,71,0.00,,OVC029,0.00,VWS V13.01,2013-02-01 17:58:00,
2013-02-01 13:03:00,11.8,3.9,30.53,WSW,250,13.0,22.0,70,0.00,,OVC029,0.00,VWS V13.01,2013-02-01 18:03:00,
2013-02-01 13:08:00,11.5,3.9,30.53,WSW,247,12.0,19.0,71,0.00,,OVC029,0.00,VWS V13.01,2013-02-01 18:08:00,
2013-02-01 13:13:00,11.9,4.6,30.53,West,261,14.0,19.0,72,0.00,,OVC029,0.00,VWS V13.01,2013-02-01 18:13:00,
2013-02-01 13:18:00,12.8,5.5,30.52,WSW,244,14.0,28.0,72,0.00,,OVC029,0.00,VWS V13.01,2013-02-01 18:18:00,
2013-02-01 13:23:00,12.8,5.2,30.52,WSW,257,16.0,28.0,71,0.00,,OVC029,0.00,VWS V13.01,2013-02-01 18:23:00,
2013-02-01 13:28:00,13.0,6.0,30.52,WSW,250,15.0,28.0,73,0.00,,OVC029,0.00,VWS V13.01,2013-02-01 18:28:00,
2013-02-01 13:33:00,13.0,5.1,30.52,SW,236,12.0,28.0,70,0.00,,OVC029,0.00,VWS V13.01,2013-02-01 18:33:00,
2013-02-01 13:38:00,12.7,4.2,30.51,WSW,240,17.0,20.0,68,0.00,,OVC029,0.00,VWS V13.01,2013-02-01 18:38:00,
2013-02-01 13:43:00,12.7,4.8,30.52,WSW,242,13.0,20.0,70,0.00,,OVC029,0.00,VWS V13.01,2013-02-01 18:43:00,
2013-02-01 13:48:00,12.7,4.8,30.51,WSW,250,17.0,20.0,70,0.00,,OVC029,0.00,VWS V13.01,2013-02-01 18:48:00,
2013-02-01 13:53:00,13.4,4.8,30.51,WSW,240,12.0,20.0,68,0.00,,OVC029,0.00,VWS V13.01,2013-02-01 18:53:00,
2013-02-01 13:58:00,13.1,4.8,30.51,WSW,243,15.0,20.0,69,0.00,,OVC029,0.00,VWS V13.01,2013-02-01 18:58:00,
2013-02-01 14:03:00,12.9,4.7,30.51,WSW,246,16.0,20.0,69,0.00,,OVC029,0.00,VWS V13.01,2013-02-01 19:03:00,
2013-02-01 14:07:00,13.2,4.6,30.51,WSW,243,12.0,19.0,68,0.00,,OVC029,0.00,VWS V13.01,2013-02-01 19:07:00,
2013-02-01 14:12:00,13.4,5.1,30.51,West,266,14.0,22.0,69,0.00,,OVC029,0.00,VWS V13.01,2013-02-01 19:12:00,
2013-02-01 14:17:00,13.3,4.7,30.51,WSW,257,15.0,22.0,68,0.00,,OVC029,0.00,VWS V13.01,2013-02-01 19:17:00,
2013-02-01 14:22:00,13.4,5.1,30.51,WSW,248,15.0,22.0,69,0.00,,OVC029,0.00,VWS V13.01,2013-02-01 19:22:00,
2013-02-01 14:27:00,14.0,6.7,30.50,WSW,241,12.0,22.0,72,0.00,,OVC029,0.00,VWS V13.01,2013-02-01 19:27:00,
2013-02-01 14:32:00,13.6,4.7,30.51,WSW,250,13.0,22.0,67,0.00,,OVC029,0.00,VWS V13.01,2013-02-01 19:32:00,
2013-02-01 14:37:00,13.4,4.5,30.50,West,259,13.0,17.0,67,0.00,,OVC029,0.00,VWS V13.01,2013-02-01 19:37:00,
2013-02-01 14:42:00,14.0,4.8,30.50,WSW,248,14.0,20.0,66,0.00,,OVC029,0.00,VWS V13.01,2013-02-01 19:42:00,
2013-02-01 14:47:00,13.6,4.4,30.50,WSW,247,13.0,20.0,66,0.00,,OVC029,0.00,VWS V13.01,2013-02-01 19:47:00,
2013-02-01 14:52:00,13.6,5.7,30.50,WSW,253,14.0,20.0,70,0.00,,OVC029,0.00,VWS V13.01,2013-02-01 19:52:00,
2013-02-01 14:57:00,14.6,6.3,30.50,West,266,18.0,20.0,69,0.00,,OVC029,0.00,VWS V13.01,2013-02-01 19:57:00,
2013-02-01 15:02:00,14.5,5.6,30.50,WSW,246,14.0,20.0,67,0.00,,OVC029,0.00,VWS V13.01,2013-02-01 20:02:00,
2013-02-01 15:07:00,14.6,5.0,30.50,WSW,240,21.0,21.0,65,0.00,,OVC029,0.00,VWS V13.01,2013-02-01 20:07:00,
2013-02-01 15:12:00,14.3,4.7,30.50,West,266,16.0,21.0,65,0.00,,OVC029,0.00,VWS V13.01,2013-02-01 20:12:00,
2013-02-01 15:17:00,14.2,5.6,30.50,West,263,12.0,21.0,68,0.00,,OVC029,0.00,VWS V13.01,2013-02-01 20:17:00,
2013-02-01 15:22:00,14.3,6.0,30.50,WSW,250,16.0,21.0,69,0.00,,OVC029,0.00,VWS V13.01,2013-02-01 20:22:00,
2013-02-01 15:27:00,14.5,6.2,30.50,WSW,246,14.0,21.0,69,0.00,,OVC029,0.00,VWS V13.01,2013-02-01 20:27:00,
2013-02-01 15:32:00,14.4,5.8,30.50,West,260,17.0,21.0,68,0.00,,OVC029,0.00,VWS V13.01,2013-02-01 20:32:00,
2013-02-01 15:37:00,14.6,6.3,30.50,West,267,14.0,18.0,69,0.00,,OVC029,0.00,VWS V13.01,2013-02-01 20:37:00,
2013-02-01 15:42:00,14.8,5.8,30.50,WSW,238,16.0,20.0,67,0.00,,OVC029,0.00,VWS V13.01,2013-02-01 20:42:00,
2013-02-01 15:47:00,14.6,5.0,30.50,WSW,247,15.0,21.0,65,0.00,,OVC029,0.00,VWS V13.01,2013-02-01 20:47:00,
2013-02-01 15:52:00,14.3,4.7,30.50,WSW,248,18.0,22.0,65,0.00,,OVC029,0.00,VWS V13.01,2013-02-01 20:52:00,
2013-02-01 15:57:00,14.3,5.7,30.50,WSW,248,18.0,22.0,68,0.00,,OVC029,0.00,VWS V13.01,2013-02-01 20:57:00,
2013-02-01 16:02:00,14.4,5.1,30.50,WSW,250,17.0,22.0,66,0.00,,OVC029,0.00,VWS V13.01,2013-02-01 21:02:00,
2013-02-01 16:07:00,14.6,5.0,30.49,WSW,253,15.0,19.0,65,0.00,,OVC029,0.00,VWS V13.01,2013-02-01 21:07:00,
2013-02-01 16:12:00,14.9,5.3,30.49,WSW,246,16.0,21.0,65,0.00,,OVC029,0.00,VWS V13.01,2013-02-01 21:12:00,
2013-02-01 16:17:00,14.9,5.6,30.49,WSW,239,16.0,21.0,66,0.00,,OVC029,0.00,VWS V13.01,2013-02-01 21:17:00,
2013-02-01 16:22:00,15.1,5.5,30.49,WSW,250,15.0,21.0,65,0.00,,OVC029,0.00,VWS V13.01,2013-02-01 21:22:00,
2013-02-01 16:27:00,14.9,5.6,30.49,WSW,241,12.0,21.0,66,0.00,,OVC029,0.00,VWS V13.01,2013-02-01 21:27:00,
2013-02-01 16:32:00,14.9,5.9,30.49,WSW,238,13.0,21.0,67,0.00,,OVC029,0.00,VWS V13.01,2013-02-01 21:32:00,
2013-02-01 16:37:00,14.8,6.2,30.49,West,261,11.0,17.0,68,0.00,,OVC029,0.00,VWS V13.01,2013-02-01 21:37:00,
2013-02-01 16:42:00,15.0,6.0,30.49,WSW,238,15.0,17.0,67,0.00,,OVC029,0.00,VWS V13.01,2013-02-01 21:42:00,
2013-02-01 16:47:00,15.2,5.9,30.49,WSW,252,17.0,19.0,66,0.00,,OVC029,0.00,VWS V13.01,2013-02-01 21:47:00,
2013-02-01 16:52:00,15.0,6.4,30.49,WSW,249,17.0,19.0,68,0.00,,OVC029,0.00,VWS V13.01,2013-02-01 21:52:00,
2013-02-01 16:57:00,14.5,5.2,30.49,SW,236,13.0,19.0,66,0.00,,OVC029,0.00,VWS V13.01,2013-02-01 21:57:00,
2013-02-01 17:03:00,14.6,6.0,30.49,SW,229,9.0,19.0,68,0.00,,OVC029,0.00,VWS V13.01,2013-02-01 22:03:00,
2013-02-01 17:08:00,14.9,5.6,30.48,SW,217,9.0,16.0,66,0.00,,OVC029,0.00,VWS V13.01,2013-02-01 22:08:00,
2013-02-01 17:13:00,14.9,5.9,30.48,SW,224,12.0,16.0,67,0.00,,OVC029,0.00,VWS V13.01,2013-02-01 22:13:00,
2013-02-01 17:18:00,14.8,5.5,30.49,SW,221,10.0,16.0,66,0.00,,OVC029,0.00,VWS V13.01,2013-02-01 22:18:00,
2013-02-01 17:23:00,14.7,5.8,30.49,SW,224,9.0,16.0,67,0.00,,OVC029,0.00,VWS V13.01,2013-02-01 22:23:00,
2013-02-01 17:28:00,15.0,6.0,30.48,SW,227,10.0,16.0,67,0.00,,OVC029,0.00,VWS V13.01,2013-02-01 22:28:00,
2013-02-01 17:33:00,15.2,6.2,30.48,SW,229,12.0,16.0,67,0.00,,OVC029,0.00,VWS V13.01,2013-02-01 22:33:00,
2013-02-01 17:38:00,15.1,5.8,30.48,SW,217,11.0,16.0,66,0.00,,OVC029,0.00,VWS V13.01,2013-02-01 22:38:00,
2013-02-01 17:43:00,15.0,5.7,30.48,SW,214,11.0,16.0,66,0.00,,OVC029,0.00,VWS V13.01,2013-02-01 22:43:00,
2013-02-01 17:48:00,15.0,5.7,30.48,SW,214,14.0,16.0,66,0.00,,OVC029,0.00,VWS V13.01,2013-02-01 22:48:00,
2013-02-01 17:53:00,14.9,5.6,30.49,SW,223,9.0,16.0,66,0.00,,OVC029,0.00,VWS V13.01,2013-02-01 22:53:00,
2013-02-01 17:58:00,14.8,5.5,30.49,SW,226,12.0,16.0,66,0.00,,OVC029,0.00,VWS V13.01,2013-02-01 22:58:00,
2013-02-01 18:03:00,14.7,5.4,30.49,SW,232,9.0,16.0,66,0.00,,OVC029,0.00,VWS V13.01,2013-02-01 23:03:00,
2013-02-01 18:08:00,14.6,5.7,30.49,SW,231,10.0,12.0,67,0.00,,OVC029,0.00,VWS V13.01,2013-02-01 23:08:00,
2013-02-01 18:13:00,14.6,5.7,30.49,SW,229,7.0,12.0,67,0.00,,OVC029,0.00,VWS V13.01,2013-02-01 23:13:00,
2013-02-01 18:18:00,14.6,6.0,30.49,SW,234,7.0,12.0,68,0.00,,OVC029,0.00,VWS V13.01,2013-02-01 23:18:00,
2013-02-01 18:23:00,14.6,6.0,30.49,SW,233,8.0,12.0,68,0.00,,OVC029,0.00,VWS V13.01,2013-02-01 23:23:00,
2013-02-01 18:27:00,14.5,5.9,30.49,SW,232,6.0,12.0,68,0.00,,OVC029,0.00,VWS V13.01,2013-02-01 23:27:00,
2013-02-01 18:33:00,14.4,6.1,30.49,SW,224,7.0,12.0,69,0.00,,OVC029,0.00,VWS V13.01,2013-02-01 23:33:00,
2013-02-01 18:38:00,14.4,6.1,30.49,SW,223,6.0,9.0,69,0.00,,OVC029,0.00,VWS V13.01,2013-02-01 23:38:00,
2013-02-01 18:43:00,14.3,6.0,30.49,SW,223,7.0,10.0,69,0.00,,OVC029,0.00,VWS V13.01,2013-02-01 23:43:00,
2013-02-01 18:48:00,14.3,6.0,30.49,SW,222,1.0,10.0,69,0.00,,OVC029,0.00,VWS V13.01,2013-02-01 23:48:00,
2013-02-01 18:53:00,14.3,6.0,30.49,SW,221,1.0,10.0,69,0.00,,OVC029,0.00,VWS V13.01,2013-02-01 23:53:00,
2013-02-01 18:58:00,14.1,6.1,30.49,SW,221,7.0,10.0,70,0.00,,OVC029,0.00,VWS V13.01,2013-02-01 23:58:00,
2013-02-01 19:03:00,14.0,6.0,30.49,SW,218,6.0,10.0,70,0.00,,OVC029,0.00,VWS V13.01,2013-02-02 00:03:00,
2013-02-01 19:08:00,14.0,6.0,30.49,SW,215,7.0,13.0,70,0.00,,OVC029,0.00,VWS V13.01,2013-02-02 00:08:00,
2013-02-01 19:13:00,14.0,6.0,30.49,SSW,205,9.0,13.0,70,0.00,,OVC029,0.00,VWS V13.01,2013-02-02 00:13:00,
2013-02-01 19:18:00,14.0,6.0,30.48,SSW,196,9.0,16.0,70,0.00,,OVC029,0.00,VWS V13.01,2013-02-02 00:18:00,
2013-02-01 19:23:00,14.0,6.0,30.48,SSW,202,7.0,16.0,70,0.00,,OVC029,0.00,VWS V13.01,2013-02-02 00:23:00,
2013-02-01 19:28:00,14.0,6.0,30.48,SSW,198,9.0,16.0,70,0.00,,OVC029,0.00,VWS V13.01,2013-02-02 00:28:00,
2013-02-01 19:33:00,13.9,5.9,30.48,SSW,199,6.0,16.0,70,0.00,,OVC029,0.00,VWS V13.01,2013-02-02 00:33:00,
2013-02-01 19:38:00,13.9,5.9,30.48,SSW,203,6.0,12.0,70,0.00,,OVC029,0.00,VWS V13.01,2013-02-02 00:38:00,
2013-02-01 19:42:00,13.8,6.2,30.48,SSW,207,6.0,14.0,71,0.00,,OVC029,0.00,VWS V13.01,2013-02-02 00:42:00,
2013-02-01 19:47:00,13.7,6.1,30.48,SSW,200,11.0,14.0,71,0.00,,OVC029,0.00,VWS V13.01,2013-02-02 00:47:00,
2013-02-01 19:52:00,13.7,6.1,30.48,SSW,194,12.0,14.0,71,0.00,,OVC029,0.00,VWS V13.01,2013-02-02 00:52:00,
2013-02-01 19:57:00,13.7,6.1,30.48,SSW,207,9.0,14.0,71,0.00,,OVC029,0.00,VWS V13.01,2013-02-02 00:57:00,
2013-02-01 20:02:00,13.6,6.0,30.48,SSW,202,9.0,14.0,71,0.00,,OVC029,0.00,VWS V13.01,2013-02-02 01:02:00,
2013-02-01 20:07:00,13.6,5.7,30.47,SSW,205,7.0,14.0,70,0.00,,OVC029,0.00,VWS V13.01,2013-02-02 01:07:00,
2013-02-01 20:12:00,13.7,5.8,30.47,SSW,196,10.0,14.0,70,0.00,,OVC029,0.00,VWS V13.01,2013-02-02 01:12:00,
2013-02-01 20:17:00,13.7,6.1,30.47,SSW,196,9.0,14.0,71,0.00,,OVC029,0.00,VWS V13.01,2013-02-02 01:17:00,
2013-02-01 20:22:00,13.5,5.9,30.47,SSW,196,9.0,14.0,71,0.00,,OVC029,0.00,VWS V13.01,2013-02-02 01:22:00,
2013-02-01 20:27:00,13.5,5.9,30.47,SSW,198,7.0,14.0,71,0.00,,OVC029,0.00,VWS V13.01,2013-02-02 01:27:00,
2013-02-01 20:32:00,13.5,5.9,30.48,SSW,198,6.0,14.0,71,0.00,,OVC029,0.00,VWS V13.01,2013-02-02 01:32:00,
2013-02-01 20:37:00,13.4,5.8,30.48,SSW,202,6.0,9.0,71,0.00,,OVC029,0.00,VWS V13.01,2013-02-02 01:37:00,
2013-02-01 20:42:00,13.4,6.1,30.48,SSW,202,6.0,10.0,72,0.00,,OVC029,0.00,VWS V13.01,2013-02-02 01:42:00,
2013-02-01 20:47:00,13.3,6.0,30.48,SSW,201,8.0,10.0,72,0.00,,OVC029,0.00,VWS V13.01,2013-02-02 01:47:00,
2013-02-01 20:52:00,13.2,5.9,30.48,SSW,203,9.0,11.0,72,0.00,,OVC029,0.00,VWS V13.01,2013-02-02 01:52:00,
2013-02-01 20:57:00,13.2,6.2,30.48,SSW,205,0.0,11.0,73,0.00,,OVC029,0.00,VWS V13.01,2013-02-02 01:57:00,
2013-02-01 21:02:00,13.2,5.9,30.48,SSW,208,5.0,11.0,72,0.00,,OVC029,0.00,VWS V13.01,2013-02-02 02:02:00,
2013-02-01 21:07:00,13.2,5.9,30.48,SSW,199,11.0,11.0,72,0.00,,OVC029,0.00,VWS V13.01,2013-02-02 02:07:00,
2013-02-01 21:12:00,13.2,6.2,30.48,SSW,198,6.0,12.0,73,0.00,,OVC029,0.00,VWS V13.01,2013-02-02 02:12:00,
2013-02-01 21:17:00,13.2,6.2,30.48,SSW,198,6.0,12.0,73,0.00,,OVC029,0.00,VWS V13.01,2013-02-02 02:17:00,
2013-02-01 21:22:00,13.2,6.2,30.47,SSW,198,8.0,12.0,73,0.00,,OVC029,0.00,VWS V13.01,2013-02-02 02:22:00,
2013-02-01 21:27:00,13.2,6.2,30.47,SSW,198,7.0,12.0,73,0.00,,OVC029,0.00,VWS V13.01,2013-02-02 02:27:00,
2013-02-01 21:32:00,13.2,6.5,30.47,SSW,195,11.0,13.0,74,0.00,,OVC029,0.00,VWS V13.01,2013-02-02 02:32:00,
2013-02-01 21:37:00,13.3,6.6,30.47,South,186,10.0,13.0,74,0.00,,OVC029,0.00,VWS V13.01,2013-02-02 02:37:00,
2013-02-01 21:42:00,13.3,6.6,30.47,SSW,192,7.0,13.0,74,0.00,,OVC029,0.00,VWS V13.01,2013-02-02 02:42:00,
2013-02-01 21:47:00,13.4,6.7,30.47,SSW,192,13.0,16.0,74,0.00,,OVC029,0.00,VWS V13.01,2013-02-02 02:47:00,
2013-02-01 21:52:00,13.5,6.8,30.47,SSW,197,9.0,16.0,74,0.00,,OVC029,0.00,VWS V13.01,2013-02-02 02:52:00,
2013-02-01 21:57:00,13.5,6.8,30.46,SSW,211,10.0,16.0,74,0.00,,OVC029,0.00,VWS V13.01,2013-02-02 02:57:00,
2013-02-01 22:02:00,13.5,6.5,30.46,SSW,202,10.0,16.0,73,0.00,,OVC029,0.00,VWS V13.01,2013-02-02 03:02:00,
2013-02-01 22:07:00,13.6,6.6,30.46,SSW,200,4.0,14.0,73,0.00,,OVC029,0.00,VWS V13.01,2013-02-02 03:07:00,
2013-02-01 22:12:00,13.5,6.5,30.46,SSW,210,5.0,14.0,73,0.00,,OVC029,0.00,VWS V13.01,2013-02-02 03:12:00,
2013-02-01 22:17:00,13.6,6.6,30.46,SSW,203,9.0,14.0,73,0.00,,OVC029,0.00,VWS V13.01,2013-02-02 03:17:00,
2013-02-01 22:22:00,13.6,6.9,30.46,SSW,198,10.0,14.0,74,0.00,,OVC029,0.00,VWS V13.01,2013-02-02 03:22:00,
2013-02-01 22:27:00,13.7,7.0,30.46,SSW,200,10.0,14.0,74,0.00,,OVC029,0.00,VWS V13.01,2013-02-02 03:27:00,
2013-02-01 22:32:00,13.7,7.0,30.46,SSW,196,12.0,14.0,74,0.00,,OVC029,0.00,VWS V13.01,2013-02-02 03:32:00,
2013-02-01 22:37:00,13.9,7.2,30.45,SSW,195,12.0,13.0,74,0.00,,OVC029,0.00,VWS V13.01,2013-02-02 03:37:00,
2013-02-01 22:42:00,14.0,7.6,30.45,South,190,11.0,14.0,75,0.00,,OVC029,0.00,VWS V13.01,2013-02-02 03:42:00,
2013-02-01 22:47:00,14.0,7.2,30.44,South,184,8.0,14.0,74,0.00,,OVC029,0.00,VWS V13.01,2013-02-02 03:47:00,
2013-02-01 22:52:00,14.2,7.4,30.44,South,185,8.0,15.0,74,0.00,,OVC029,0.00,VWS V13.01,2013-02-02 03:52:00,
2013-02-01 22:57:00,14.3,7.8,30.44,South,187,1.0,15.0,75,0.00,,OVC029,0.00,VWS V13.01,2013-02-02 03:57:00,
2013-02-01 23:02:00,14.3,7.6,30.44,South,191,6.0,15.0,74,0.00,,OVC029,0.00,VWS V13.01,2013-02-02 04:02:00,
2013-02-01 23:07:00,14.5,8.0,30.44,South,180,7.0,12.0,75,0.00,,OVC029,0.00,VWS V13.01,2013-02-02 04:07:00,
2013-02-01 23:12:00,14.5,7.7,30.43,South,186,11.0,14.0,74,0.00,,OVC029,0.00,VWS V13.01,2013-02-02 04:12:00,
2013-02-01 23:17:00,14.6,8.1,30.43,South,184,11.0,15.0,75,0.00,,OVC029,0.00,VWS V13.01,2013-02-02 04:17:00,
2013-02-01 23:22:00,14.6,8.1,30.43,South,187,13.0,15.0,75,0.00,,OVC029,0.00,VWS V13.01,2013-02-02 04:22:00,
2013-02-01 23:27:00,14.7,7.9,30.43,SSW,195,9.0,18.0,74,0.00,,OVC029,0.00,VWS V13.01,2013-02-02 04:27:00,
2013-02-01 23:32:00,14.8,8.0,30.43,South,183,12.0,18.0,74,0.00,,OVC029,0.00,VWS V13.01,2013-02-02 04:32:00,
2013-02-01 23:37:00,14.9,8.4,30.42,SSW,195,14.0,16.0,75,0.00,,OVC029,0.00,VWS V13.01,2013-02-02 04:37:00,
2013-02-01 23:42:00,15.1,8.6,30.42,SSW,197,12.0,16.0,75,0.00,,OVC029,0.00,VWS V13.01,2013-02-02 04:42:00,
2013-02-01 23:47:00,15.2,8.7,30.42,South,186,11.0,16.0,75,0.00,,OVC029,0.00,VWS V13.01,2013-02-02 04:47:00,
2013-02-01 23:52:00,15.4,8.6,30.42,South,179,6.0,17.0,74,0.00,,OVC029,0.00,VWS V13.01,2013-02-02 04:52:00,
2013-02-01 23:57:00,15.5,8.7,30.42,SSW,194,11.0,17.0,74,0.00,,OVC029,0.00,VWS V13.01,2013-02-02 04:57:00,